Weather History for Chesapeake, VA

Change the Weather History Date:

Tuesday, July 9, 2013

  Actual Average (KORF) Record (KORF)
Temperature  
Mean Temperature 80 °F 80 °F  
Max Temperature 87 °F 88 °F 100 °F (1986)
Min Temperature 73 °F 72 °F 57 °F (1978)
Degree Days  
Heating Degree Days 0 0  
Month to date heating degree days 0  
Since 1 June heating degree days 6  
Since 1 July heating degree days 0  
Cooling Degree Days 15 15  
Month to date cooling degree days 129  
Year to date cooling degree days 610  
Since 1 June cooling degree days 444  
Growing Degree Days 30 (Base 50)    
Moisture  
Dew Point 73 °F    
Average Humidity 80    
Maximum Humidity 94    
Minimum Humidity 62    
Precipitation  
Precipitation 0.00 in 0.14 in 2.84 in (1950)
Month to date precipitation 1.29  
Year to date precipitation 22.57  
Snow  
Snow 0.00 in 0.00 in 0.00 in (2002)
Month to date snowfall 0.0  
Since 1 July snowfall 0.0  
Snow Depth -    
Sea Level Pressure  
Sea Level Pressure 30.13 in    
Wind  
Wind Speed 5 mph (SSW)    
Max Wind Speed 14 mph    
Max Gust Speed 21 mph    
Visibility 8 miles    
Events Thunderstorm    
T = Trace of Precipitation, MM = Missing Value Source: NWS Daily Summary

Daily Weather History Graph

Daily Weather History Graph

Search for Another Location

Airport:

Trip Planner

Search our weather history database for the weather conditions in past years. The results will help you decide how hot, cold, wet, or windy it might be!

Date:

Astronomy

Jul. 09, 2013 Rise Set
Actual Time 5:54 AM EDT 8:26 PM EDT
Civil Twilight 5:24 AM EDT 8:56 PM EDT
Nautical Twilight 4:47 AM EDT 9:33 PM EDT
Astronomical Twilight 4:05 AM EDT 10:14 PM EDT
Moon 7:13 AM EDT (7/9) 9:06 PM EDT (7/9)
Length of Visible Light 15h 31m
Length of Day
14h 31m
New Moon, 2% of the Moon is Illuminated
Jul 9
New Moon
Jul 15
First Quarter
Jul 22
Full
Jul 29
Last Quarter
Aug 6
New

Hourly Weather History & Observations

Time (EDT) Temp. Heat Index Dew Point Humidity Pressure Visibility Wind Dir Wind Speed Gust Speed Precip Events Conditions
12:15 AM 77.0 °F - 73.4 °F 89% 30.15 in 7.0 mi South 4.6 mph - N/A   Overcast
12:35 AM 77.0 °F - 75.2 °F 94% 30.15 in 7.0 mi SSE 3.5 mph - N/A   Overcast
12:55 AM 77.0 °F - 75.2 °F 94% 30.15 in 7.0 mi Calm Calm - N/A   Overcast
1:15 AM 77.0 °F - 75.2 °F 94% 30.15 in 7.0 mi Calm Calm - N/A Thunderstorm Overcast
1:35 AM 77.0 °F - 75.2 °F 94% 30.15 in 7.0 mi SSE 3.5 mph - N/A   Scattered Clouds
1:55 AM 75.2 °F - 73.4 °F 94% 30.15 in 7.0 mi South 3.5 mph - N/A   Scattered Clouds
2:15 AM 75.2 °F - 73.4 °F 94% 30.14 in 7.0 mi Calm Calm - N/A   Scattered Clouds
2:35 AM 75.2 °F - 73.4 °F 94% 30.14 in 7.0 mi Calm Calm - N/A   Scattered Clouds
2:55 AM 75.2 °F - 73.4 °F 94% 30.13 in 7.0 mi South 3.5 mph - N/A   Clear
3:15 AM 75.2 °F - 73.4 °F 94% 30.14 in 7.0 mi South 3.5 mph - N/A   Clear
3:35 AM 75.2 °F - 73.4 °F 94% 30.14 in 7.0 mi South 4.6 mph - N/A   Clear
3:55 AM 75.2 °F - 73.4 °F 94% 30.14 in 10.0 mi South 4.6 mph - N/A   Clear
4:15 AM 75.2 °F - 73.4 °F 94% 30.14 in 10.0 mi SSW 4.6 mph - N/A   Mostly Cloudy
4:35 AM 75.2 °F - 71.6 °F 89% 30.14 in 10.0 mi SSW 3.5 mph - N/A   Scattered Clouds
4:55 AM 73.4 °F - 71.6 °F 94% 30.13 in 10.0 mi South 3.5 mph - N/A   Scattered Clouds
5:15 AM 73.4 °F - 71.6 °F 94% 30.13 in 10.0 mi South 3.5 mph - N/A   Clear
5:35 AM 73.4 °F - 71.6 °F 94% 30.14 in 10.0 mi SSW 3.5 mph - N/A   Clear
5:55 AM 73.4 °F - 71.6 °F 94% 30.14 in 7.0 mi South 4.6 mph - N/A   Clear
6:15 AM 73.4 °F - 71.6 °F 94% 30.14 in 7.0 mi SSW 3.5 mph - N/A   Clear
6:35 AM 73.4 °F - 71.6 °F 94% 30.15 in 5.0 mi SSW 3.5 mph - N/A   Clear
6:55 AM 73.4 °F - 71.6 °F 94% 30.15 in 4.0 mi SSW 4.6 mph - N/A Thunderstorm Clear
7:15 AM 75.2 °F - 73.4 °F 94% 30.15 in 5.0 mi South 4.6 mph - N/A Thunderstorm Clear
7:35 AM 75.2 °F - 73.4 °F 94% 30.16 in 5.0 mi South 9.2 mph - N/A Thunderstorm Clear
7:55 AM 75.2 °F - 73.4 °F 94% 30.17 in 7.0 mi SSW 9.2 mph - N/A Thunderstorm Scattered Clouds
8:15 AM 78.8 °F - 73.4 °F 83% 30.17 in 7.0 mi SSW 9.2 mph - N/A   Scattered Clouds
8:35 AM 78.8 °F - 73.4 °F 83% 30.17 in 7.0 mi SSW 3.5 mph - N/A   Mostly Cloudy
8:55 AM 80.6 °F 85.4 °F 73.4 °F 79% 30.16 in 5.0 mi SW 3.5 mph - N/A   Haze
9:15 AM 80.6 °F 85.4 °F 73.4 °F 79% 30.16 in 7.0 mi SSW 4.6 mph - N/A   Scattered Clouds
9:35 AM 80.6 °F 85.4 °F 73.4 °F 79% 30.16 in 7.0 mi WSW 4.6 mph - N/A   Clear
9:55 AM 82.4 °F 88.2 °F 73.4 °F 74% 30.16 in 10.0 mi SSW 8.1 mph - N/A   Mostly Cloudy
10:15 AM 82.4 °F 88.2 °F 73.4 °F 74% 30.16 in 5.0 mi SSW 5.8 mph - N/A   Haze
10:35 AM 82.4 °F 89.5 °F 75.2 °F 79% 30.16 in 7.0 mi South 9.2 mph - N/A   Mostly Cloudy
10:55 AM 82.4 °F 89.5 °F 75.2 °F 79% 30.16 in 10.0 mi South 12.7 mph - N/A   Mostly Cloudy
11:15 AM 82.4 °F 88.2 °F 73.4 °F 74% 30.16 in 10.0 mi South 10.4 mph - N/A   Scattered Clouds
11:35 AM 84.2 °F 90.9 °F 73.4 °F 70% 30.16 in 10.0 mi South 10.4 mph - N/A   Scattered Clouds
11:55 AM 82.4 °F 88.2 °F 73.4 °F 74% 30.15 in 10.0 mi SSW 10.4 mph - N/A   Scattered Clouds
12:15 PM 84.2 °F 90.9 °F 73.4 °F 70% 30.15 in 10.0 mi South 6.9 mph - N/A   Mostly Cloudy
12:35 PM 84.2 °F 90.9 °F 73.4 °F 70% 30.14 in 7.0 mi South 6.9 mph - N/A   Mostly Cloudy
12:55 PM 84.2 °F 90.9 °F 73.4 °F 70% 30.14 in 7.0 mi SW 6.9 mph - N/A   Mostly Cloudy
1:15 PM 84.2 °F 90.9 °F 73.4 °F 70% 30.14 in 7.0 mi SW 5.8 mph - N/A   Scattered Clouds
1:35 PM 86.0 °F 95.1 °F 75.2 °F 70% 30.13 in 7.0 mi SW 6.9 mph - N/A   Scattered Clouds
1:55 PM 86.0 °F 95.1 °F 75.2 °F 70% 30.12 in 7.0 mi SSW 4.6 mph - N/A   Clear
2:15 PM 87.8 °F 97.6 °F 75.2 °F 66% 30.12 in 10.0 mi SW 6.9 mph - N/A   Scattered Clouds
2:35 PM 87.8 °F 97.6 °F 75.2 °F 66% 30.12 in 10.0 mi SSW 6.9 mph - N/A   Scattered Clouds
2:55 PM 86.0 °F 95.1 °F 75.2 °F 70% 30.12 in 10.0 mi SSW 10.4 mph - N/A   Mostly Cloudy
3:15 PM 86.0 °F 93.4 °F 73.4 °F 66% 30.12 in 10.0 mi SSW 11.5 mph - N/A   Scattered Clouds
3:35 PM 86.0 °F 93.4 °F 73.4 °F 66% 30.11 in 10.0 mi SW 5.8 mph 9.2 mph N/A   Scattered Clouds
3:55 PM 87.8 °F 95.6 °F 73.4 °F 62% 30.10 in 10.0 mi South 9.2 mph - N/A   Scattered Clouds
4:15 PM 87.8 °F 95.6 °F 73.4 °F 62% 30.09 in 10.0 mi South 8.1 mph - N/A   Scattered Clouds
4:35 PM 87.8 °F 95.6 °F 73.4 °F 62% 30.09 in 10.0 mi SW 6.9 mph - N/A   Clear
4:55 PM 87.8 °F 95.6 °F 73.4 °F 62% 30.09 in 10.0 mi WSW 8.1 mph - N/A   Clear
5:15 PM 87.8 °F 95.6 °F 73.4 °F 62% 30.08 in 10.0 mi SW 6.9 mph - N/A   Clear
5:35 PM 87.8 °F 95.6 °F 73.4 °F 62% 30.08 in 10.0 mi SSW 9.2 mph - N/A   Clear
5:55 PM 87.8 °F 95.6 °F 73.4 °F 62% 30.08 in 10.0 mi SW 5.8 mph - N/A   Clear
6:15 PM 84.2 °F 90.9 °F 73.4 °F 70% 30.08 in 10.0 mi SW 3.5 mph - N/A   Clear
6:35 PM 84.2 °F 90.9 °F 73.4 °F 70% 30.08 in 10.0 mi SSW 3.5 mph - N/A   Clear
6:55 PM 84.2 °F 92.3 °F 75.2 °F 74% 30.08 in 10.0 mi South 5.8 mph - N/A   Clear
7:15 PM 84.2 °F 92.3 °F 75.2 °F 74% 30.08 in 10.0 mi SSW 9.2 mph - N/A   Scattered Clouds
7:35 PM 82.4 °F 87.2 °F 71.6 °F 70% 30.08 in 10.0 mi South 12.7 mph 18.4 mph N/A   Scattered Clouds
7:55 PM 80.6 °F 83.9 °F 69.8 °F 70% 30.08 in 10.0 mi SSW 13.8 mph 20.7 mph N/A   Clear
8:15 PM 78.8 °F - 69.8 °F 74% 30.09 in 10.0 mi SW 6.9 mph - N/A   Clear
8:35 PM 78.8 °F - 69.8 °F 74% 30.09 in 10.0 mi SW 3.5 mph - N/A   Clear
8:55 PM 75.2 °F - 69.8 °F 83% 30.10 in 10.0 mi SSW 5.8 mph - N/A   Clear
9:15 PM 77.0 °F - 69.8 °F 78% 30.11 in 10.0 mi SSW 6.9 mph - N/A   Clear
9:35 PM 75.2 °F - 69.8 °F 83% 30.11 in 10.0 mi South 5.8 mph - N/A   Clear
9:55 PM 75.2 °F - 69.8 °F 83% 30.11 in 10.0 mi SSW 4.6 mph - N/A   Scattered Clouds
10:15 PM 75.2 °F - 69.8 °F 83% 30.12 in 7.0 mi SSW 4.6 mph - N/A   Mostly Cloudy
10:35 PM 75.2 °F - 71.6 °F 89% 30.12 in 10.0 mi SSW 4.6 mph - N/A   Overcast
10:55 PM 75.2 °F - 71.6 °F 89% 30.11 in 10.0 mi South 3.5 mph - N/A   Scattered Clouds
11:15 PM 75.2 °F - 71.6 °F 89% 30.12 in 7.0 mi SSW 5.8 mph - N/A   Scattered Clouds
11:35 PM 75.2 °F - 71.6 °F 89% 30.12 in 10.0 mi South 5.8 mph - N/A   Scattered Clouds
11:55 PM 75.2 °F - 71.6 °F 89% 30.12 in 7.0 mi South 5.8 mph - N/A   Clear